Location: Estes P
(40.3770°N, 105.5210°W)
Time: 18:16:11
(UTC-06:00)

Envisat - Visible Passes

Search period start: 19 June 2018 00:00
Search period end: 29 June 2018 00:00
Orbit: 764 x 766 km, 98.2° (Epoch: 19 June)

Date Brightness Start Highest point End Pass type
(mag) Time Alt. Az. Time Alt. Az. Time Alt. Az.
19 Jun 5.6 21:39:54 10° SW 21:42:43 15° W 21:45:34 10° NW visible
20 Jun 4.7 21:01:08 10° SSW 21:05:41 33° W 21:10:16 10° NNW visible
22 Jun 5.5 21:27:54 10° SW 21:31:27 19° W 21:35:01 10° NW visible
24 Jun 6.0 21:56:50 10° W 21:57:19 10° W 21:57:48 10° W visible
25 Jun 5.2 21:16:08 10° SSW 21:20:12 24° W 21:24:17 10° NW visible
27 Jun 5.7 21:43:35 10° WSW 21:46:01 13° W 21:48:28 10° WNW visible
28 Jun 4.9 21:04:32 10° SSW 21:08:57 30° W 21:13:25 10° NW visible
